EW2485 Weather Reports


time (UTC)temp
C
wind
direction
speed
KPH
gust
KPH
rain 1hr
cm
rain 24hr
cm
rain mn
cm
humidity
%
barometer
mb
20260505063102 14 162 8.0 16.1 0.00 0.00 0.00 69 1005.6
20260505061525 14 163 6.4 11.3 0.00 0.00 0.00 67 1005.5
20260505060050 15 187 6.4 17.7 0.00 0.00 0.00 66 1005.6
20260505054602 15 186 6.4 19.3 0.00 0.00 0.00 65 1005.5
20260505053026 15 195 8.0 17.7 0.00 0.00 0.00 64 1005.8
20260505051558 15 217 6.4 16.1 0.00 0.00 0.00 64 1005.8
20260505041547 15 217 4.8 11.3 0.00 0.00 0.00 64 1006.0
20260505040012 15 150 3.2 11.3 0.00 0.00 0.00 63 1005.8
20260505034529 15 163 3.2 9.7 0.00 0.00 0.00 63 1005.8
20260505033049 15 152 3.2 8.0 0.00 0.00 0.00 62 1005.8
20260505031525 15 152 3.2 11.3 0.00 0.00 0.00 61 1005.8
20260505030006 15 234 3.2 9.7 0.00 0.00 0.00 61 1005.7
20260505024557 16 269 3.2 8.0 0.00 0.00 0.00 60 1005.9
20260505023022 16 178 6.4 14.5 0.00 0.00 0.00 59 1005.8
20260505021535 16 182 4.8 11.3 0.00 0.00 0.00 58 1005.9
20260505020053 16 211 4.8 20.9 0.00 0.00 0.00 57 1005.9
20260505014514 17 195 8.0 24.1 0.00 0.00 0.00 56 1005.8
20260505013053 16 203 11.3 24.1 0.00 0.00 0.00 56 1005.6
20260505011558 17 170 8.0 19.3 0.00 0.00 0.00 55 1005.6
20260505010009 17 202 8.0 20.9 0.00 0.00 0.00 54 1005.5
20260505004535 17 190 9.7 22.5 0.00 0.00 0.00 52 1005.5
20260505003103 18 159 8.0 19.3 0.00 0.00 0.00 49 1005.3
20260505001541 18 193 9.7 19.3 0.00 0.00 0.00 48 1005.1
20260505000029 18 213 4.8 11.3 0.00 0.00 0.00 47 1004.9
20260504234505 20 168 9.7 19.3 0.00 0.00 0.00 45 1004.9
20260504233036 20 213 8.0 25.7 0.00 0.00 0.00 44 1004.8
20260504231553 21 167 9.7 27.4 0.00 0.00 0.00 43 1004.7
20260504230017 21 165 14.5 32.2 0.00 0.00 0.00 41 1004.7
20260504224543 22 212 11.3 24.1 0.00 0.00 0.00 35 1004.7
20260504223105 22 202 8.0 20.9 0.00 0.00 0.00 36 1004.9
20260504221525 23 218 9.7 22.5 0.00 0.00 0.00 35 1004.8
20260504220045 23 234 19.3 32.2 0.00 0.00 0.00 34 1004.9
20260504214616 23 195 11.3 38.6 0.00 0.00 0.00 35 1005.0
20260504213039 23 279 11.3 32.2 0.00 0.00 0.00 35 1004.9
20260504211600 23 306 16.1 33.8 0.00 0.00 0.00 35 1005.0
20260504210040 23 253 16.1 25.7 0.00 0.00 0.00 35 1005.3
20260504204603 22 231 16.1 37.0 0.00 0.00 0.00 37 1005.4
20260504203027 22 252 9.7 33.8 0.00 0.00 0.00 38 1005.5
20260504201552 22 230 12.9 49.9 0.00 0.00 0.00 40 1005.8
20260504194522 22 211 20.9 46.7 0.00 0.00 0.00 41 1006.2
20260504193046 22 181 11.3 41.8 0.00 0.00 0.00 41 1006.5
20260504191515 21 241 20.9 38.6 0.00 0.00 0.00 42 1006.5
20260504190040 21 243 9.7 30.6 0.00 0.00 0.00 43 1006.8
20260504184503 21 247 17.7 37.0 0.00 0.00 0.00 43 1006.9
20260504183046 21 168 14.5 30.6 0.00 0.00 0.00 45 1007.0
20260504181532 21 239 17.7 33.8 0.00 0.00 0.00 44 1007.1
20260504180055 21 220 14.5 35.4 0.00 0.00 0.00 46 1007.2
20260504174526 20 259 20.9 45.1 0.00 0.00 0.00 47 1007.5
20260504173043 20 248 11.3 30.6 0.00 0.00 0.00 50 1007.6
20260504171507 20 221 16.1 37.0 0.00 0.00 0.00 47 1007.6
20260504120110 8 182 12.9 29.0 0.00 0.00 0.00 65 1010.6
20260504081544 7 210 9.7 19.3 0.00 0.00 0.00 67 1010.8